| time (UTC) | temp F | wind direction | speed MPH | gust MPH | rain 1hr in | rain 24hr in | rain mn in | humidity % | barometer mb |
| 20260902230702 | 79 | 14 | 4.0 | 11.0 | 0.00 | 0.17 | 0.17 | 90 | 1014.3 |
| 20260902230201 | 79 | 65 | 2.0 | 4.0 | 0.00 | 0.17 | 0.17 | 90 | 1014.3 |
| 20260902225703 | 79 | 39 | 1.0 | 5.0 | 0.00 | 0.17 | 0.17 | 90 | 1014.2 |
| 20260902224702 | 78 | 83 | 2.0 | 5.0 | 0.00 | 0.17 | 0.17 | 90 | 1014.4 |
| 20260902224151 | 78 | 8 | 3.0 | 8.0 | 0.00 | 0.17 | 0.17 | 90 | 1014.4 |
| 20260902223650 | 78 | 24 | 4.0 | 8.0 | 0.00 | 0.17 | 0.17 | 90 | 1014.4 |
| 20260902223152 | 78 | 29 | 4.0 | 7.0 | 0.00 | 0.17 | 0.17 | 90 | 1014.5 |
| 20260902222651 | 78 | 60 | 3.0 | 6.0 | 0.00 | 0.17 | 0.17 | 90 | 1014.5 |
| 20260902222152 | 78 | 35 | 3.0 | 6.0 | 0.02 | 0.17 | 0.17 | 90 | 1014.5 |
| 20260902221652 | 78 | 2 | 3.0 | 6.0 | 0.06 | 0.17 | 0.17 | 90 | 1014.5 |
| 20260902220649 | 78 | 37 | 2.0 | 5.0 | 0.17 | 0.17 | 0.17 | 90 | 1014.5 |
| 20260902220148 | 77 | 0 | 2.0 | 5.0 | 0.17 | 0.17 | 0.17 | 90 | 1014.5 |
| 20260902215644 | 77 | 32 | 2.0 | 6.0 | 0.17 | 0.17 | 0.17 | 90 | 1014.5 |
| 20260902215144 | 77 | 82 | 2.0 | 7.0 | 0.17 | 0.17 | 0.17 | 90 | 1014.6 |
| 20260902214645 | 77 | 119 | 2.0 | 8.0 | 0.17 | 0.17 | 0.17 | 90 | 1014.6 |
| 20260902213646 | 77 | 131 | 2.0 | 7.0 | 0.17 | 0.17 | 0.17 | 90 | 1014.5 |
| 20260902212139 | 77 | 93 | 4.0 | 9.0 | 0.15 | 0.16 | 0.15 | 89 | 1014.6 |
| 20260902211139 | 80 | 59 | 6.0 | 13.0 | 0.05 | 0.06 | 0.05 | 87 | 1014.7 |
| 20260902205642 | 85 | 117 | 6.0 | 13.0 | 0.00 | 0.00 | 0.00 | 77 | 1014.4 |
| 20260902204641 | 85 | 83 | 4.0 | 12.0 | 0.00 | 0.01 | 0.00 | 76 | 1014.2 |
| 20260902204141 | 85 | 33 | 5.0 | 9.0 | 0.00 | 0.01 | 0.00 | 76 | 1014.3 |
| 20260902203641 | 86 | 300 | 5.0 | 11.0 | 0.00 | 0.01 | 0.00 | 75 | 1014.1 |
| 20260902203142 | 86 | 21 | 6.0 | 11.0 | 0.00 | 0.01 | 0.00 | 74 | 1014.2 |
| 20260902202638 | 87 | 113 | 7.0 | 14.0 | 0.00 | 0.01 | 0.00 | 71 | 1014.1 |
| 20260902202137 | 87 | 55 | 6.0 | 14.0 | 0.00 | 0.01 | 0.00 | 72 | 1014.0 |
| 20260902201638 | 87 | 57 | 6.0 | 13.0 | 0.00 | 0.01 | 0.00 | 70 | 1014.0 |
| 20260902201138 | 87 | 67 | 6.0 | 15.0 | 0.00 | 0.01 | 0.00 | 70 | 1014.1 |
| 20260902200637 | 88 | 59 | 6.0 | 15.0 | 0.00 | 0.01 | 0.00 | 69 | 1014.1 |
| 20260902195638 | 87 | 8 | 6.0 | 11.0 | 0.00 | 0.01 | 0.00 | 69 | 1014.1 |
| 20260902195139 | 86 | 195 | 5.0 | 10.0 | 0.00 | 0.01 | 0.00 | 70 | 1014.2 |
| 20260902194638 | 86 | 75 | 5.0 | 11.0 | 0.00 | 0.01 | 0.00 | 73 | 1014.2 |
| 20260902194139 | 86 | 27 | 5.0 | 11.0 | 0.00 | 0.01 | 0.00 | 73 | 1014.2 |
| 20260902193638 | 86 | 61 | 5.0 | 16.0 | 0.00 | 0.01 | 0.00 | 72 | 1014.3 |
| 20260902192637 | 86 | 11 | 4.0 | 10.0 | 0.00 | 0.01 | 0.00 | 73 | 1014.3 |
| 20260902191638 | 87 | 73 | 5.0 | 12.0 | 0.00 | 0.01 | 0.00 | 72 | 1014.4 |
| 20260902191133 | 87 | 99 | 6.0 | 13.0 | 0.00 | 0.01 | 0.00 | 72 | 1014.5 |
| 20260902190134 | 88 | 94 | 5.0 | 11.0 | 0.00 | 0.01 | 0.00 | 69 | 1014.4 |
| 20260902185633 | 88 | 26 | 5.0 | 12.0 | 0.00 | 0.01 | 0.00 | 69 | 1014.4 |
| 20260902185133 | 88 | 6 | 5.0 | 12.0 | 0.00 | 0.01 | 0.00 | 69 | 1014.4 |
| 20260902184134 | 88 | 102 | 6.0 | 12.0 | 0.00 | 0.01 | 0.00 | 69 | 1014.5 |
| 20260902183633 | 87 | 6 | 6.0 | 11.0 | 0.00 | 0.01 | 0.00 | 69 | 1014.6 |
| 20260902182633 | 87 | 0 | 5.0 | 13.0 | 0.00 | 0.01 | 0.00 | 70 | 1014.7 |
| 20260902182137 | 87 | 343 | 4.0 | 12.0 | 0.00 | 0.01 | 0.00 | 70 | 1014.7 |
| 20260902181631 | 87 | 57 | 5.0 | 11.0 | 0.00 | 0.01 | 0.00 | 69 | 1014.7 |
| 20260902180630 | 89 | 37 | 5.0 | 10.0 | 0.00 | 0.01 | 0.00 | 67 | 1014.8 |
| 20260902175129 | 89 | 115 | 4.0 | 11.0 | 0.00 | 0.01 | 0.00 | 65 | 1014.9 |
| 20260902174629 | 89 | 97 | 5.0 | 12.0 | 0.00 | 0.01 | 0.00 | 64 | 1014.8 |
| 20260902174129 | 88 | 18 | 6.0 | 12.0 | 0.00 | 0.01 | 0.00 | 66 | 1014.9 |
| 20260902172629 | 88 | 46 | 5.0 | 11.0 | 0.00 | 0.01 | 0.00 | 67 | 1014.9 |
| 20260902172129 | 88 | 182 | 4.0 | 12.0 | 0.00 | 0.01 | 0.00 | 70 | 1015.0 |
| 20260902171625 | 88 | 10 | 5.0 | 12.0 | 0.00 | 0.01 | 0.00 | 70 | 1015.1 |
| 20260902171125 | 88 | 21 | 6.0 | 14.0 | 0.00 | 0.01 | 0.00 | 69 | 1015.2 |
| 20260902170625 | 88 | 120 | 6.0 | 14.0 | 0.00 | 0.01 | 0.00 | 69 | 1015.2 |
| 20260902170125 | 88 | 30 | 5.0 | 11.0 | 0.00 | 0.01 | 0.00 | 69 | 1015.2 |
| 20260902165125 | 88 | 31 | 6.0 | 15.0 | 0.00 | 0.01 | 0.00 | 68 | 1015.4 |
| 20260902164626 | 88 | 33 | 6.0 | 15.0 | 0.00 | 0.01 | 0.00 | 70 | 1015.4 |
| 20260902164127 | 89 | 22 | 5.0 | 13.0 | 0.00 | 0.01 | 0.00 | 68 | 1015.4 |
| 20260902163626 | 88 | 47 | 5.0 | 9.0 | 0.00 | 0.01 | 0.00 | 68 | 1015.5 |
| 20260902163126 | 88 | 60 | 4.0 | 9.0 | 0.00 | 0.01 | 0.00 | 68 | 1015.6 |
| 20260902162120 | 87 | 144 | 5.0 | 10.0 | 0.00 | 0.01 | 0.00 | 70 | 1015.7 |
| 20260902161620 | 88 | 16 | 4.0 | 10.0 | 0.00 | 0.01 | 0.00 | 69 | 1015.8 |
| 20260902161120 | 87 | 10 | 4.0 | 10.0 | 0.00 | 0.01 | 0.00 | 69 | 1015.8 |
| 20260902160120 | 86 | 98 | 4.0 | 13.0 | 0.00 | 0.01 | 0.00 | 72 | 1015.9 |
| 20260902155121 | 86 | 6 | 6.0 | 13.0 | 0.00 | 0.01 | 0.00 | 75 | 1016.2 |
| 20260902154621 | 86 | 36 | 5.0 | 13.0 | 0.00 | 0.01 | 0.00 | 75 | 1016.2 |
| 20260902154121 | 86 | 17 | 4.0 | 13.0 | 0.00 | 0.01 | 0.00 | 74 | 1016.3 |
| 20260902153621 | 85 | 56 | 3.0 | 9.0 | 0.00 | 0.01 | 0.00 | 76 | 1016.3 |
| 20260902153121 | 86 | 23 | 4.0 | 13.0 | 0.00 | 0.01 | 0.00 | 76 | 1016.3 |
| 20260902152621 | 86 | 45 | 6.0 | 13.0 | 0.00 | 0.01 | 0.00 | 77 | 1016.3 |
| 20260902152121 | 86 | 15 | 6.0 | 12.0 | 0.00 | 0.01 | 0.00 | 76 | 1016.3 |
| 20260902151619 | 86 | 32 | 5.0 | 12.0 | 0.00 | 0.01 | 0.00 | 76 | 1016.3 |
| 20260902151118 | 86 | 38 | 4.0 | 11.0 | 0.00 | 0.01 | 0.00 | 76 | 1016.3 |
| 20260902150619 | 85 | 46 | 5.0 | 11.0 | 0.00 | 0.01 | 0.00 | 76 | 1016.3 |
| 20260902150119 | 85 | 26 | 5.0 | 11.0 | 0.00 | 0.01 | 0.00 | 78 | 1016.2 |
| 20260902145619 | 85 | 330 | 5.0 | 9.0 | 0.00 | 0.01 | 0.00 | 77 | 1016.2 |
| 20260902145119 | 86 | 13 | 4.0 | 10.0 | 0.00 | 0.01 | 0.00 | 77 | 1016.3 |
| 20260902144119 | 85 | 21 | 6.0 | 11.0 | 0.00 | 0.01 | 0.00 | 78 | 1016.2 |
| 20260902143619 | 84 | 351 | 4.0 | 10.0 | 0.00 | 0.01 | 0.00 | 79 | 1016.2 |
| 20260902143121 | 84 | 33 | 4.0 | 10.0 | 0.00 | 0.01 | 0.00 | 81 | 1016.1 |
| 20260902142619 | 84 | 92 | 4.0 | 10.0 | 0.00 | 0.01 | 0.00 | 79 | 1016.1 |
| 20260902142117 | 84 | 110 | 6.0 | 11.0 | 0.00 | 0.01 | 0.00 | 83 | 1016.1 |
| 20260902141613 | 83 | 331 | 5.0 | 11.0 | 0.00 | 0.01 | 0.00 | 82 | 1016.1 |
| 20260902141113 | 83 | 349 | 5.0 | 10.0 | 0.00 | 0.01 | 0.00 | 84 | 1016.1 |
| 20260902140615 | 83 | 22 | 5.0 | 10.0 | 0.00 | 0.01 | 0.00 | 83 | 1016.2 |
| 20260902140115 | 83 | 20 | 6.0 | 10.0 | 0.00 | 0.01 | 0.00 | 84 | 1016.2 |
| 20260902135615 | 83 | 5 | 5.0 | 10.0 | 0.00 | 0.01 | 0.00 | 85 | 1016.2 |
| 20260902135115 | 83 | 31 | 6.0 | 11.0 | 0.00 | 0.01 | 0.00 | 86 | 1016.1 |
| 20260902134615 | 83 | 306 | 5.0 | 11.0 | 0.00 | 0.01 | 0.00 | 85 | 1016.2 |
| 20260902134115 | 83 | 340 | 4.0 | 8.0 | 0.00 | 0.01 | 0.00 | 86 | 1016.1 |
| 20260902133115 | 82 | 2 | 4.0 | 8.0 | 0.00 | 0.01 | 0.00 | 87 | 1016.2 |
| 20260902132615 | 81 | 340 | 4.0 | 9.0 | 0.00 | 0.01 | 0.00 | 87 | 1016.2 |
| 20260902132112 | 81 | 31 | 4.0 | 9.0 | 0.00 | 0.01 | 0.00 | 88 | 1016.3 |
| 20260902131112 | 80 | 354 | 4.0 | 8.0 | 0.00 | 0.01 | 0.00 | 92 | 1016.2 |
| 20260902130613 | 80 | 8 | 4.0 | 9.0 | 0.00 | 0.01 | 0.00 | 93 | 1016.2 |
| 20260902124613 | 78 | 292 | 3.0 | 7.0 | 0.00 | 0.01 | 0.00 | 95 | 1016.1 |
| 20260902124113 | 78 | 14 | 4.0 | 8.0 | 0.00 | 0.01 | 0.00 | 95 | 1016.1 |
| 20260902123613 | 77 | 348 | 4.0 | 8.0 | 0.00 | 0.01 | 0.00 | 95 | 1016.2 |
| 20260902122602 | 77 | 359 | 3.0 | 6.0 | 0.00 | 0.01 | 0.00 | 95 | 1016.2 |
| 20260902122103 | 77 | 23 | 3.0 | 6.0 | 0.00 | 0.01 | 0.00 | 95 | 1016.1 |
| 20260902121602 | 77 | 42 | 3.0 | 6.0 | 0.00 | 0.01 | 0.00 | 95 | 1016.1 |
| 20260902121101 | 77 | 23 | 3.0 | 5.0 | 0.00 | 0.01 | 0.00 | 95 | 1016.1 |
| 20260902120602 | 77 | 244 | 3.0 | 5.0 | 0.00 | 0.01 | 0.00 | 95 | 1016.1 |
| 20260902115602 | 77 | 227 | 3.0 | 6.0 | 0.00 | 0.01 | 0.00 | 95 | 1015.9 |
| 20260902114602 | 77 | 25 | 3.0 | 6.0 | 0.00 | 0.01 | 0.00 | 95 | 1015.9 |
| 20260902114103 | 77 | 225 | 2.0 | 4.0 | 0.00 | 0.01 | 0.00 | 95 | 1015.9 |
| 20260902113603 | 77 | 217 | 2.0 | 4.0 | 0.00 | 0.01 | 0.00 | 95 | 1015.9 |
| 20260902113100 | 77 | 244 | 3.0 | 5.0 | 0.00 | 0.01 | 0.00 | 95 | 1015.8 |
| 20260902112602 | 77 | 350 | 3.0 | 5.0 | 0.00 | 0.01 | 0.00 | 95 | 1015.8 |
| 20260902112101 | 77 | 324 | 3.0 | 4.0 | 0.00 | 0.01 | 0.00 | 95 | 1015.7 |
| 20260902111601 | 77 | 321 | 2.0 | 4.0 | 0.00 | 0.01 | 0.00 | 95 | 1015.7 |
| 20260902111102 | 77 | 16 | 2.0 | 3.0 | 0.00 | 0.01 | 0.00 | 95 | 1015.6 |
| 20260902110601 | 76 | 240 | 2.0 | 4.0 | 0.00 | 0.01 | 0.00 | 95 | 1015.5 |
| 20260902105602 | 76 | 17 | 2.0 | 4.0 | 0.00 | 0.01 | 0.00 | 95 | 1015.5 |
| 20260902105101 | 76 | 19 | 2.0 | 4.0 | 0.00 | 0.01 | 0.00 | 95 | 1015.5 |
| 20260902104601 | 76 | 222 | 3.0 | 4.0 | 0.00 | 0.01 | 0.00 | 95 | 1015.4 |
| 20260902104103 | 76 | 245 | 3.0 | 5.0 | 0.00 | 0.01 | 0.00 | 95 | 1015.4 |
| 20260902103601 | 76 | 27 | 3.0 | 5.0 | 0.00 | 0.01 | 0.00 | 95 | 1015.4 |
| 20260902102604 | 76 | 356 | 2.0 | 3.0 | 0.00 | 0.01 | 0.00 | 95 | 1015.4 |
| 20260902101101 | 76 | 230 | 1.0 | 4.0 | 0.00 | 0.01 | 0.00 | 95 | 1015.2 |
| 20260902100601 | 76 | 0 | 2.0 | 4.0 | 0.00 | 0.01 | 0.00 | 95 | 1015.2 |
| 20260902095601 | 76 | 237 | 3.0 | 4.0 | 0.00 | 0.01 | 0.00 | 95 | 1015.2 |
| 20260902095101 | 76 | 3 | 3.0 | 4.0 | 0.00 | 0.01 | 0.00 | 95 | 1015.1 |
| 20260902094601 | 76 | 226 | 3.0 | 4.0 | 0.00 | 0.01 | 0.00 | 95 | 1015.1 |
| 20260902093601 | 76 | 232 | 3.0 | 4.0 | 0.00 | 0.01 | 0.00 | 95 | 1015.0 |
| 20260902093100 | 76 | 1 | 3.0 | 4.0 | 0.00 | 0.01 | 0.00 | 94 | 1014.9 |
| 20260902092601 | 76 | 11 | 2.0 | 4.0 | 0.00 | 0.01 | 0.00 | 94 | 1014.9 |
| 20260902092105 | 76 | 25 | 3.0 | 6.0 | 0.00 | 0.01 | 0.00 | 94 | 1014.9 |
| 20260902091601 | 76 | 30 | 2.0 | 6.0 | 0.00 | 0.01 | 0.00 | 94 | 1014.9 |
| 20260902091101 | 76 | 13 | 2.0 | 4.0 | 0.00 | 0.01 | 0.00 | 94 | 1014.8 |
| 20260902090602 | 76 | 219 | 2.0 | 4.0 | 0.00 | 0.01 | 0.00 | 94 | 1014.7 |
| 20260902085101 | 76 | 268 | 3.0 | 5.0 | 0.00 | 0.01 | 0.00 | 94 | 1014.8 |
| 20260902084601 | 76 | 4 | 3.0 | 5.0 | 0.00 | 0.01 | 0.00 | 94 | 1014.8 |
| 20260902084102 | 76 | 1 | 3.0 | 5.0 | 0.00 | 0.01 | 0.00 | 94 | 1014.9 |
| 20260902083601 | 76 | 17 | 2.0 | 4.0 | 0.00 | 0.01 | 0.00 | 94 | 1014.9 |
| 20260902083102 | 76 | 228 | 2.0 | 3.0 | 0.00 | 0.01 | 0.00 | 94 | 1015.0 |
| 20260902082602 | 76 | 243 | 2.0 | 3.0 | 0.00 | 0.01 | 0.00 | 94 | 1015.0 |
| 20260902082102 | 76 | 351 | 2.0 | 4.0 | 0.00 | 0.01 | 0.00 | 94 | 1015.0 |
| 20260902081602 | 76 | 18 | 3.0 | 4.0 | 0.00 | 0.01 | 0.00 | 94 | 1015.0 |
| 20260902081101 | 76 | 232 | 3.0 | 4.0 | 0.00 | 0.01 | 0.00 | 94 | 1015.0 |
| 20260902080602 | 76 | 13 | 3.0 | 4.0 | 0.00 | 0.01 | 0.00 | 94 | 1015.0 |
| 20260902075603 | 76 | 18 | 3.0 | 4.0 | 0.00 | 0.01 | 0.00 | 94 | 1015.0 |
| 20260902075102 | 76 | 264 | 2.0 | 4.0 | 0.00 | 0.01 | 0.00 | 94 | 1015.0 |
| 20260902074102 | 76 | 2 | 3.0 | 4.0 | 0.00 | 0.01 | 0.00 | 94 | 1015.0 |
| 20260902073602 | 76 | 6 | 2.0 | 4.0 | 0.00 | 0.01 | 0.00 | 94 | 1015.0 |
| 20260902073053 | 77 | 15 | 2.0 | 4.0 | 0.00 | 0.01 | 0.00 | 94 | 1015.0 |
| 20260902072554 | 77 | 46 | 3.0 | 4.0 | 0.00 | 0.01 | 0.00 | 94 | 1015.1 |
| 20260902071552 | 77 | 338 | 2.0 | 4.0 | 0.00 | 0.01 | 0.00 | 93 | 1015.1 |
| 20260902071050 | 77 | 249 | 2.0 | 4.0 | 0.00 | 0.01 | 0.00 | 93 | 1015.0 |
| 20260902070551 | 77 | 0 | 2.0 | 4.0 | 0.00 | 0.01 | 0.00 | 93 | 1015.0 |
| 20260902070047 | 77 | 32 | 3.0 | 4.0 | 0.00 | 0.01 | 0.00 | 93 | 1015.0 |
| 20260902065050 | 77 | 15 | 2.0 | 4.0 | 0.00 | 0.01 | 0.00 | 93 | 1014.9 |
| 20260902064548 | 77 | 16 | 1.0 | 3.0 | 0.00 | 0.01 | 0.00 | 93 | 1014.8 |
| 20260902064048 | 77 | 359 | 1.0 | 2.0 | 0.00 | 0.01 | 0.00 | 93 | 1014.8 |
| 20260902063551 | 77 | 17 | 2.0 | 3.0 | 0.00 | 0.01 | 0.00 | 93 | 1014.8 |
| 20260902063048 | 77 | 338 | 2.0 | 4.0 | 0.00 | 0.01 | 0.00 | 93 | 1014.8 |
| 20260902062548 | 77 | 329 | 1.0 | 4.0 | 0.00 | 0.01 | 0.00 | 93 | 1014.8 |
| 20260902062051 | 77 | 0 | 0.0 | 2.0 | 0.00 | 0.01 | 0.00 | 93 | 1014.9 |
| 20260902061548 | 77 | 0 | 1.0 | 3.0 | 0.00 | 0.01 | 0.00 | 93 | 1014.9 |
| 20260902060547 | 77 | 351 | 2.0 | 2.0 | 0.00 | 0.01 | 0.00 | 93 | 1014.8 |
| 20260902060047 | 77 | 0 | 1.0 | 2.0 | 0.00 | 0.01 | 0.00 | 93 | 1014.8 |
| 20260902055547 | 77 | 16 | 0.0 | 2.0 | 0.00 | 0.01 | 0.00 | 93 | 1014.8 |
| 20260902055034 | 77 | 203 | 1.0 | 2.0 | 0.00 | 0.01 | 0.00 | 93 | 1014.8 |
| 20260902054534 | 77 | 276 | 1.0 | 3.0 | 0.00 | 0.01 | 0.00 | 93 | 1014.8 |
| 20260902054035 | 77 | 207 | 1.0 | 3.0 | 0.00 | 0.01 | 0.00 | 93 | 1014.9 |
| 20260902053535 | 77 | 354 | 0.0 | 2.0 | 0.00 | 0.01 | 0.00 | 93 | 1015.0 |
| 20260902053035 | 77 | 0 | 0.0 | 0.0 | 0.00 | 0.01 | 0.00 | 93 | 1015.0 |
| 20260902052531 | 77 | 0 | 0.0 | 0.0 | 0.00 | 0.01 | 0.00 | 93 | 1015.0 |
| 20260902052030 | 77 | 0 | 0.0 | 2.0 | 0.00 | 0.01 | 0.00 | 93 | 1014.9 |
| 20260902051529 | 77 | 0 | 1.0 | 2.0 | 0.00 | 0.01 | 0.00 | 93 | 1014.9 |
| 20260902051030 | 77 | 346 | 1.0 | 2.0 | 0.00 | 0.01 | 0.00 | 92 | 1015.0 |
| 20260902050530 | 77 | 0 | 0.0 | 2.0 | 0.00 | 0.01 | 0.00 | 92 | 1015.0 |
| 20260902050030 | 77 | 218 | 0.0 | 2.0 | 0.00 | 0.01 | 0.00 | 92 | 1015.1 |
| 20260902045521 | 77 | 14 | 0.0 | 2.0 | 0.00 | 0.01 | 0.00 | 92 | 1015.2 |
| 20260902044524 | 77 | 0 | 0.0 | 1.0 | 0.00 | 0.01 | 0.00 | 92 | 1015.2 |
| 20260902044020 | 77 | 0 | 0.0 | 0.0 | 0.00 | 0.01 | 0.00 | 92 | 1015.2 |
| 20260902043505 | 77 | 0 | 0.0 | 1.0 | 0.00 | 0.01 | 0.00 | 92 | 1015.3 |
| 20260902043004 | 78 | 211 | 0.0 | 1.0 | 0.00 | 0.01 | 0.00 | 92 | 1015.3 |
| 20260902042504 | 78 | 0 | 0.0 | 0.0 | 0.00 | 0.01 | 0.00 | 92 | 1015.3 |
| 20260902042005 | 78 | 0 | 0.0 | 2.0 | 0.00 | 0.01 | 0.00 | 92 | 1015.4 |
| 20260902041505 | 78 | 0 | 0.0 | 2.0 | 0.00 | 0.01 | 0.00 | 92 | 1015.4 |
| 20260902041004 | 78 | 0 | 0.0 | 2.0 | 0.00 | 0.01 | 0.00 | 92 | 1015.4 |
| 20260902040005 | 78 | 0 | 0.0 | 2.0 | 0.00 | 0.01 | 0.00 | 92 | 1015.5 |
| 20260902035502 | 78 | 252 | 1.0 | 2.0 | 0.00 | 0.01 | 0.01 | 92 | 1015.4 |
| 20260902034002 | 78 | 0 | 0.0 | 0.0 | 0.00 | 0.01 | 0.01 | 91 | 1015.5 |
| 20260902033502 | 78 | 0 | 0.0 | 0.0 | 0.00 | 0.01 | 0.01 | 91 | 1015.6 |
| 20260902033001 | 78 | 0 | 0.0 | 0.0 | 0.00 | 0.01 | 0.01 | 90 | 1015.7 |
| 20260902032500 | 78 | 0 | 0.0 | 0.0 | 0.00 | 0.01 | 0.01 | 90 | 1015.6 |
| 20260902032003 | 78 | 0 | 0.0 | 0.0 | 0.00 | 0.01 | 0.01 | 90 | 1015.6 |
| 20260902031503 | 78 | 0 | 0.0 | 0.0 | 0.00 | 0.01 | 0.01 | 90 | 1015.7 |
| 20260902031002 | 78 | 0 | 0.0 | 0.0 | 0.00 | 0.01 | 0.01 | 90 | 1015.7 |
| 20260902030502 | 78 | 0 | 0.0 | 0.0 | 0.00 | 0.01 | 0.01 | 90 | 1015.7 |
| 20260902025502 | 78 | 0 | 0.0 | 0.0 | 0.00 | 0.01 | 0.01 | 89 | 1015.8 |
| 20260902025002 | 78 | 0 | 0.0 | 0.0 | 0.00 | 0.01 | 0.01 | 89 | 1015.8 |
| 20260902024453 | 78 | 0 | 0.0 | 0.0 | 0.00 | 0.01 | 0.01 | 89 | 1015.9 |
| 20260902023952 | 78 | 0 | 0.0 | 0.0 | 0.00 | 0.01 | 0.01 | 89 | 1015.9 |
| 20260902023451 | 79 | 0 | 0.0 | 1.0 | 0.00 | 0.01 | 0.01 | 88 | 1015.9 |
| 20260902022952 | 79 | 0 | 0.0 | 1.0 | 0.00 | 0.01 | 0.01 | 88 | 1015.9 |
| 20260902022451 | 79 | 0 | 0.0 | 0.0 | 0.00 | 0.01 | 0.01 | 88 | 1015.9 |
| 20260902021952 | 79 | 0 | 0.0 | 0.0 | 0.00 | 0.01 | 0.01 | 88 | 1016.0 |
| 20260902021455 | 79 | 0 | 0.0 | 0.0 | 0.00 | 0.01 | 0.01 | 87 | 1015.9 |
| 20260902020951 | 79 | 0 | 0.0 | 0.0 | 0.00 | 0.01 | 0.01 | 87 | 1015.8 |
| 20260902020450 | 79 | 0 | 0.0 | 0.0 | 0.00 | 0.01 | 0.01 | 87 | 1015.7 |
| 20260902015951 | 79 | 0 | 0.0 | 1.0 | 0.00 | 0.01 | 0.01 | 87 | 1015.7 |
| 20260902015449 | 79 | 0 | 1.0 | 3.0 | 0.00 | 0.01 | 0.01 | 87 | 1015.7 |
| 20260902014950 | 79 | 0 | 1.0 | 3.0 | 0.00 | 0.01 | 0.01 | 87 | 1015.6 |
| 20260902014439 | 79 | 353 | 0.0 | 2.0 | 0.00 | 0.01 | 0.01 | 86 | 1015.6 |
| 20260902013938 | 80 | 0 | 0.0 | 0.0 | 0.00 | 0.01 | 0.01 | 86 | 1015.6 |
| 20260902013438 | 80 | 0 | 0.0 | 0.0 | 0.00 | 0.01 | 0.01 | 86 | 1015.6 |
| 20260902012939 | 80 | 0 | 0.0 | 0.0 | 0.00 | 0.01 | 0.01 | 86 | 1015.6 |
| 20260902012434 | 80 | 0 | 0.0 | 2.0 | 0.00 | 0.01 | 0.01 | 85 | 1015.5 |
| 20260902011930 | 80 | 0 | 0.0 | 2.0 | 0.00 | 0.01 | 0.01 | 85 | 1015.5 |
| 20260902011430 | 80 | 40 | 0.0 | 3.0 | 0.00 | 0.01 | 0.01 | 85 | 1015.5 |
| 20260902010930 | 81 | 0 | 1.0 | 3.0 | 0.00 | 0.01 | 0.01 | 85 | 1015.4 |
| 20260902005929 | 81 | 0 | 1.0 | 3.0 | 0.00 | 0.01 | 0.01 | 85 | 1015.3 |
| 20260902005425 | 81 | 32 | 2.0 | 4.0 | 0.00 | 0.01 | 0.01 | 84 | 1015.3 |
| 20260902003910 | 81 | 54 | 1.0 | 3.0 | 0.00 | 0.01 | 0.01 | 84 | 1015.1 |
| 20260902003410 | 81 | 4 | 2.0 | 4.0 | 0.00 | 0.01 | 0.01 | 84 | 1015.2 |
| 20260902002911 | 81 | 11 | 2.0 | 5.0 | 0.00 | 0.01 | 0.01 | 83 | 1015.2 |
| 20260902002403 | 82 | 356 | 2.0 | 5.0 | 0.00 | 0.01 | 0.01 | 83 | 1015.2 |
| 20260902001902 | 82 | 4 | 2.0 | 5.0 | 0.00 | 0.01 | 0.01 | 83 | 1015.2 |
| 20260902001402 | 82 | 18 | 2.0 | 4.0 | 0.00 | 0.01 | 0.01 | 83 | 1015.2 |
| 20260902000902 | 82 | 12 | 2.0 | 4.0 | 0.00 | 0.01 | 0.01 | 83 | 1015.2 |
| 20260902000406 | 82 | 4 | 1.0 | 2.0 | 0.00 | 0.01 | 0.01 | 82 | 1015.2 |
| 20260901235901 | 82 | 0 | 1.0 | 3.0 | 0.00 | 0.01 | 0.01 | 82 | 1015.2 |
| 20260901234854 | 82 | 12 | 1.0 | 5.0 | 0.00 | 0.01 | 0.01 | 80 | 1015.2 |
| 20260901234355 | 82 | 0 | 1.0 | 5.0 | 0.00 | 0.01 | 0.01 | 79 | 1015.1 |
| 20260901233900 | 82 | 6 | 2.0 | 4.0 | 0.00 | 0.01 | 0.01 | 79 | 1015.1 |
| 20260901233355 | 83 | 7 | 2.0 | 4.0 | 0.00 | 0.01 | 0.01 | 78 | 1015.1 |
| 20260901232855 | 83 | 0 | 2.0 | 5.0 | 0.00 | 0.01 | 0.01 | 78 | 1015.1 |
| 20260901232356 | 83 | 47 | 2.0 | 6.0 | 0.00 | 0.01 | 0.01 | 77 | 1015.0 |
| 20260901231856 | 83 | 356 | 2.0 | 6.0 | 0.00 | 0.01 | 0.01 | 76 | 1015.0 |
| 20260901231358 | 83 | 53 | 3.0 | 7.0 | 0.00 | 0.01 | 0.01 | 75 | 1015.0 |
| 20260901230850 | 83 | 69 | 3.0 | 7.0 | 0.00 | 0.01 | 0.01 | 74 | 1014.9 |